カタログに戻る

FENGYUN 1C DEB

運用中PO
NORAD 29740·DEBRIS·🇨🇳 China

打ち上げ May 10, 1999 から Taiyuan Satellite Launch Center

Loading…

次のパス (今後24時間)

TLE

最新Source: Space-Track

元期: Sep 14, 2026, 08:08 UTC

1 29740U 99025AE  26257.33950478  .00000289  00000-0  82184-3 0  9993
2 29740  99.0665  35.5584 0971069   8.6606 352.9941 12.08710574862641

AllMySatでFENGYUN 1C DEBをリアルタイム追跡

Download on the App Store